Time,TemperatureF,DewpointF,PressureIn,WindDirection,WindDirectionDegrees,WindSpeedMPH,WindSpeedGustMPH,Humidity,HourlyPrecipIn,Conditions,Clouds,dailyrainin,SoftwareType,DateUTC
2013-01-16 00:00:00,20.2,14.7,29.92,SW,225,12.0,-999.0,79,0.00,,,0.00,Wunderground v.1.15,2013-01-16 06:00:00,
2013-01-16 00:05:00,20.2,14.7,29.92,SW,225,12.0,-999.0,79,0.00,,,0.00,Wunderground v.1.15,2013-01-16 06:05:00,
2013-01-16 00:10:00,20.1,14.6,29.92,SW,225,11.0,-999.0,79,0.00,,,0.00,Wunderground v.1.15,2013-01-16 06:10:00,
2013-01-16 00:15:00,20.1,14.6,29.91,SW,225,12.0,-999.0,79,0.00,,,0.00,Wunderground v.1.15,2013-01-16 06:15:00,
2013-01-16 00:20:00,20.2,14.7,29.90,SW,225,12.0,-999.0,79,0.00,,,0.00,Wunderground v.1.15,2013-01-16 06:20:00,
2013-01-16 00:25:00,20.3,14.8,29.91,SW,225,13.0,-999.0,79,0.00,,,0.00,Wunderground v.1.15,2013-01-16 06:25:00,
2013-01-16 00:30:00,20.4,14.9,29.90,SW,225,12.0,-999.0,79,0.00,,,0.00,Wunderground v.1.15,2013-01-16 06:30:00,
2013-01-16 00:35:00,20.4,14.9,29.89,SW,225,12.0,-999.0,79,0.00,,,0.00,Wunderground v.1.15,2013-01-16 06:35:00,
2013-01-16 00:40:00,20.4,14.6,29.90,SW,225,10.0,-999.0,78,0.00,,,0.00,Wunderground v.1.15,2013-01-16 06:40:00,
2013-01-16 00:45:00,20.6,14.8,29.89,SW,225,12.0,-999.0,78,0.00,,,0.00,Wunderground v.1.15,2013-01-16 06:45:00,
2013-01-16 00:50:00,20.8,14.7,29.89,SW,225,13.0,-999.0,77,0.00,,,0.00,Wunderground v.1.15,2013-01-16 06:50:00,
2013-01-16 00:55:00,20.9,14.8,29.89,SW,225,12.0,-999.0,77,0.00,,,0.00,Wunderground v.1.15,2013-01-16 06:55:00,
2013-01-16 01:00:00,21.1,15.0,29.88,SW,225,12.0,-999.0,77,0.00,,,0.00,Wunderground v.1.15,2013-01-16 07:00:00,
2013-01-16 01:05:00,21.4,15.0,29.88,SW,225,13.0,-999.0,76,0.00,,,0.00,Wunderground v.1.15,2013-01-16 07:05:00,
2013-01-16 01:10:00,21.5,15.1,29.87,SW,225,11.0,-999.0,76,0.00,,,0.00,Wunderground v.1.15,2013-01-16 07:10:00,
2013-01-16 01:15:00,21.6,15.2,29.87,SW,225,13.0,-999.0,76,0.00,,,0.00,Wunderground v.1.15,2013-01-16 07:15:00,
2013-01-16 01:20:00,21.7,15.3,29.87,SW,225,12.0,-999.0,76,0.00,,,0.00,Wunderground v.1.15,2013-01-16 07:20:00,
2013-01-16 01:25:00,21.6,15.2,29.87,SW,225,12.0,-999.0,76,0.00,,,0.00,Wunderground v.1.15,2013-01-16 07:25:00,
2013-01-16 01:30:00,21.6,15.2,29.87,SW,225,12.0,-999.0,76,0.00,,,0.00,Wunderground v.1.15,2013-01-16 07:30:00,
2013-01-16 01:35:00,21.6,15.2,29.87,SW,225,13.0,-999.0,76,0.00,,,0.00,Wunderground v.1.15,2013-01-16 07:35:00,
2013-01-16 01:40:00,21.7,15.0,29.86,SW,225,14.0,-999.0,75,0.00,,,0.00,Wunderground v.1.15,2013-01-16 07:40:00,
2013-01-16 01:45:00,21.7,15.0,29.87,SW,225,13.0,-999.0,75,0.00,,,0.00,Wunderground v.1.15,2013-01-16 07:45:00,
2013-01-16 01:50:00,21.7,15.0,29.86,SW,225,11.0,-999.0,75,0.00,,,0.00,Wunderground v.1.15,2013-01-16 07:50:00,
2013-01-16 01:55:00,21.9,15.2,29.86,SW,225,12.0,-999.0,75,0.00,,,0.00,Wunderground v.1.15,2013-01-16 07:55:00,
2013-01-16 02:00:00,22.1,15.4,29.85,SW,225,13.0,-999.0,75,0.00,,,0.00,Wunderground v.1.15,2013-01-16 08:00:00,
2013-01-16 02:05:00,22.1,15.4,29.85,SW,225,12.0,-999.0,75,0.00,,,0.00,Wunderground v.1.15,2013-01-16 08:05:00,
2013-01-16 02:10:00,22.2,15.5,29.86,SW,225,11.0,-999.0,75,0.00,,,0.00,Wunderground v.1.15,2013-01-16 08:10:00,
2013-01-16 02:15:00,22.2,15.5,29.85,SW,225,12.0,-999.0,75,0.00,,,0.00,Wunderground v.1.15,2013-01-16 08:15:00,
2013-01-16 02:20:00,22.2,15.5,29.85,SW,225,13.0,-999.0,75,0.00,,,0.00,Wunderground v.1.15,2013-01-16 08:20:00,
2013-01-16 02:25:00,22.3,15.6,29.85,SW,225,12.0,-999.0,75,0.00,,,0.00,Wunderground v.1.15,2013-01-16 08:25:00,
2013-01-16 02:30:00,22.3,15.6,29.85,SW,225,11.0,-999.0,75,0.00,,,0.00,Wunderground v.1.15,2013-01-16 08:30:00,
2013-01-16 02:35:00,22.4,15.7,29.85,SW,225,11.0,-999.0,75,0.00,,,0.00,Wunderground v.1.15,2013-01-16 08:35:00,
2013-01-16 02:40:00,22.3,15.6,29.84,SW,225,12.0,-999.0,75,0.00,,,0.00,Wunderground v.1.15,2013-01-16 08:40:00,
2013-01-16 02:45:00,22.3,15.6,29.84,SW,225,12.0,-999.0,75,0.00,,,0.00,Wunderground v.1.15,2013-01-16 08:45:00,
2013-01-16 02:50:00,22.4,15.7,29.84,SW,225,11.0,-999.0,75,0.00,,,0.00,Wunderground v.1.15,2013-01-16 08:50:00,
2013-01-16 02:55:00,22.6,15.9,29.84,SW,225,12.0,-999.0,75,0.00,,,0.00,Wunderground v.1.15,2013-01-16 08:55:00,
2013-01-16 03:00:00,22.8,16.1,29.85,SW,225,11.0,-999.0,75,0.00,,,0.00,Wunderground v.1.15,2013-01-16 09:00:00,
2013-01-16 03:05:00,22.9,16.5,29.84,SW,225,10.0,-999.0,76,0.00,,,0.00,Wunderground v.1.15,2013-01-16 09:05:00,
2013-01-16 03:10:00,23.0,16.6,29.84,SW,225,10.0,-999.0,76,0.00,,,0.00,Wunderground v.1.15,2013-01-16 09:10:00,
2013-01-16 03:15:00,23.2,16.4,29.83,SW,225,9.0,-999.0,75,0.00,,,0.00,Wunderground v.1.15,2013-01-16 09:15:00,
2013-01-16 03:20:00,23.3,16.9,29.83,SW,225,10.0,-999.0,76,0.00,,,0.00,Wunderground v.1.15,2013-01-16 09:20:00,
2013-01-16 03:25:00,23.3,16.9,29.84,SW,225,10.0,-999.0,76,0.00,,,0.00,Wunderground v.1.15,2013-01-16 09:25:00,
2013-01-16 03:30:00,23.5,17.0,29.84,SW,225,11.0,-999.0,76,0.00,,,0.00,Wunderground v.1.15,2013-01-16 09:30:00,
2013-01-16 03:35:00,23.7,17.2,29.83,SW,225,12.0,-999.0,76,0.00,,,0.00,Wunderground v.1.15,2013-01-16 09:35:00,
2013-01-16 03:40:00,23.7,17.5,29.83,SW,225,10.0,-999.0,77,0.00,,,0.00,Wunderground v.1.15,2013-01-16 09:40:00,
2013-01-16 03:45:00,23.8,17.6,29.83,SW,225,10.0,-999.0,77,0.00,,,0.00,Wunderground v.1.15,2013-01-16 09:45:00,
2013-01-16 03:50:00,23.8,17.6,29.82,SW,225,12.0,-999.0,77,0.00,,,0.00,Wunderground v.1.15,2013-01-16 09:50:00,
2013-01-16 03:55:00,23.8,17.6,29.82,SW,225,12.0,-999.0,77,0.00,,,0.00,Wunderground v.1.15,2013-01-16 09:55:00,
2013-01-16 04:00:00,23.9,17.7,29.82,SW,225,11.0,-999.0,77,0.00,,,0.00,Wunderground v.1.15,2013-01-16 10:00:00,
2013-01-16 04:05:00,23.9,17.7,29.82,SW,225,12.0,-999.0,77,0.00,,,0.00,Wunderground v.1.15,2013-01-16 10:05:00,
2013-01-16 04:10:00,24.0,17.8,29.82,SW,225,11.0,-999.0,77,0.00,,,0.00,Wunderground v.1.15,2013-01-16 10:10:00,
2013-01-16 04:15:00,24.0,18.1,29.81,SW,225,10.0,-999.0,78,0.00,,,0.00,Wunderground v.1.15,2013-01-16 10:15:00,
2013-01-16 04:20:00,24.2,18.3,29.81,SW,225,10.0,-999.0,78,0.00,,,0.00,Wunderground v.1.15,2013-01-16 10:20:00,
2013-01-16 04:25:00,24.3,18.4,29.82,SW,225,10.0,-999.0,78,0.00,,,0.00,Wunderground v.1.15,2013-01-16 10:25:00,
2013-01-16 04:30:00,24.5,18.6,29.82,SW,225,10.0,-999.0,78,0.00,,,0.00,Wunderground v.1.15,2013-01-16 10:30:00,
2013-01-16 04:35:00,24.7,19.1,29.81,SW,225,9.0,-999.0,79,0.00,,,0.00,Wunderground v.1.15,2013-01-16 10:35:00,
2013-01-16 04:40:00,24.8,18.9,29.81,SW,225,10.0,-999.0,78,0.00,,,0.00,Wunderground v.1.15,2013-01-16 10:40:00,
2013-01-16 04:45:00,24.7,18.8,29.81,SW,225,9.0,-999.0,78,0.00,,,0.00,Wunderground v.1.15,2013-01-16 10:45:00,
2013-01-16 04:50:00,24.6,19.0,29.80,SW,225,9.0,-999.0,79,0.00,,,0.00,Wunderground v.1.15,2013-01-16 10:50:00,
2013-01-16 04:55:00,24.7,19.1,29.80,SW,225,10.0,-999.0,79,0.00,,,0.00,Wunderground v.1.15,2013-01-16 10:55:00,
2013-01-16 05:00:00,24.7,19.4,29.80,SW,225,9.0,-999.0,80,0.00,,,0.00,Wunderground v.1.15,2013-01-16 11:00:00,
2013-01-16 05:05:00,24.9,19.6,29.80,WSW,248,9.0,-999.0,80,0.00,,,0.00,Wunderground v.1.15,2013-01-16 11:05:00,
2013-01-16 05:10:00,25.0,19.7,29.81,WSW,248,9.0,-999.0,80,0.00,,,0.00,Wunderground v.1.15,2013-01-16 11:10:00,
2013-01-16 05:15:00,25.0,19.7,29.80,WSW,248,8.0,-999.0,80,0.00,,,0.00,Wunderground v.1.15,2013-01-16 11:15:00,
2013-01-16 05:20:00,25.0,19.7,29.80,WSW,248,10.0,-999.0,80,0.00,,,0.00,Wunderground v.1.15,2013-01-16 11:20:00,
2013-01-16 05:25:00,24.9,19.6,29.80,SW,225,9.0,-999.0,80,0.00,,,0.00,Wunderground v.1.15,2013-01-16 11:25:00,
2013-01-16 05:30:00,24.8,19.8,29.80,SW,225,7.0,-999.0,81,0.00,,,0.00,Wunderground v.1.15,2013-01-16 11:30:00,
2013-01-16 05:35:00,25.0,20.3,29.80,SW,225,9.0,-999.0,82,0.00,,,0.00,Wunderground v.1.15,2013-01-16 11:35:00,
2013-01-16 05:40:00,25.3,20.6,29.80,WSW,248,9.0,-999.0,82,0.00,,,0.00,Wunderground v.1.15,2013-01-16 11:40:00,
2013-01-16 05:45:00,25.5,20.8,29.79,WSW,248,10.0,-999.0,82,0.00,,,0.00,Wunderground v.1.15,2013-01-16 11:45:00,
2013-01-16 05:50:00,25.7,21.0,29.79,WSW,248,10.0,-999.0,82,0.00,,,0.00,Wunderground v.1.15,2013-01-16 11:50:00,
2013-01-16 05:55:00,25.8,21.3,29.79,WSW,248,10.0,-999.0,83,0.00,,,0.00,Wunderground v.1.15,2013-01-16 11:55:00,
2013-01-16 06:00:00,25.8,21.3,29.80,WSW,248,11.0,-999.0,83,0.00,,,0.00,Wunderground v.1.15,2013-01-16 12:00:00,
2013-01-16 06:05:00,25.8,21.3,29.80,WSW,248,10.0,-999.0,83,0.00,,,0.00,Wunderground v.1.15,2013-01-16 12:05:00,
2013-01-16 06:10:00,25.9,21.7,29.80,WSW,248,10.0,-999.0,84,0.00,,,0.00,Wunderground v.1.15,2013-01-16 12:10:00,
2013-01-16 06:15:00,25.7,21.5,29.80,WSW,248,8.0,-999.0,84,0.00,,,0.00,Wunderground v.1.15,2013-01-16 12:15:00,
2013-01-16 06:20:00,25.5,21.3,29.79,WSW,248,9.0,-999.0,84,0.00,,,0.00,Wunderground v.1.15,2013-01-16 12:20:00,
2013-01-16 06:25:00,25.3,21.1,29.80,WSW,248,9.0,-999.0,84,0.00,,,0.00,Wunderground v.1.15,2013-01-16 12:25:00,
2013-01-16 06:30:00,25.2,21.0,29.81,WSW,248,8.0,-999.0,84,0.00,,,0.00,Wunderground v.1.15,2013-01-16 12:30:00,
2013-01-16 06:35:00,25.1,21.2,29.81,WSW,248,7.0,-999.0,85,0.00,,,0.00,Wunderground v.1.15,2013-01-16 12:35:00,
2013-01-16 06:40:00,25.3,21.4,29.81,WSW,248,7.0,-999.0,85,0.00,,,0.00,Wunderground v.1.15,2013-01-16 12:40:00,
2013-01-16 06:45:00,25.7,22.1,29.81,WSW,248,7.0,-999.0,86,0.00,,,0.00,Wunderground v.1.15,2013-01-16 12:45:00,
2013-01-16 06:50:00,25.8,21.9,29.81,WSW,248,8.0,-999.0,85,0.00,,,0.00,Wunderground v.1.15,2013-01-16 12:50:00,
2013-01-16 06:55:00,25.9,22.0,29.81,WSW,248,8.0,-999.0,85,0.00,,,0.00,Wunderground v.1.15,2013-01-16 12:55:00,
2013-01-16 07:00:00,26.2,22.6,29.81,WSW,248,9.0,-999.0,86,0.00,,,0.00,Wunderground v.1.15,2013-01-16 13:00:00,
2013-01-16 07:05:00,26.5,22.9,29.82,WSW,248,8.0,-999.0,86,0.00,,,0.00,Wunderground v.1.15,2013-01-16 13:05:00,
2013-01-16 07:10:00,26.3,22.7,29.82,WSW,248,7.0,-999.0,86,0.00,,,0.00,Wunderground v.1.15,2013-01-16 13:10:00,
2013-01-16 07:15:00,26.2,22.6,29.83,WSW,248,7.0,-999.0,86,0.00,,,0.00,Wunderground v.1.15,2013-01-16 13:15:00,
2013-01-16 07:20:00,25.8,22.2,29.82,WSW,248,7.0,-999.0,86,0.00,,,0.00,Wunderground v.1.15,2013-01-16 13:20:00,
2013-01-16 07:25:00,25.4,21.8,29.82,WSW,248,7.0,-999.0,86,0.00,,,0.00,Wunderground v.1.15,2013-01-16 13:25:00,
2013-01-16 07:30:00,25.2,21.6,29.82,WSW,248,7.0,-999.0,86,0.00,,,0.00,Wunderground v.1.15,2013-01-16 13:30:00,
2013-01-16 07:35:00,25.2,21.6,29.82,WSW,248,9.0,-999.0,86,0.00,,,0.00,Wunderground v.1.15,2013-01-16 13:35:00,
2013-01-16 07:40:00,25.2,21.9,29.83,WSW,248,8.0,-999.0,87,0.00,,,0.00,Wunderground v.1.15,2013-01-16 13:40:00,
2013-01-16 07:45:00,25.2,21.9,29.83,WSW,248,8.0,-999.0,87,0.00,,,0.00,Wunderground v.1.15,2013-01-16 13:45:00,
2013-01-16 07:50:00,25.3,22.0,29.83,SW,225,9.0,-999.0,87,0.00,,,0.00,Wunderground v.1.15,2013-01-16 13:50:00,
2013-01-16 07:55:00,25.3,22.0,29.82,SW,225,9.0,-999.0,87,0.00,,,0.00,Wunderground v.1.15,2013-01-16 13:55:00,
2013-01-16 08:00:00,25.3,22.0,29.83,SW,225,9.0,-999.0,87,0.00,,,0.00,Wunderground v.1.15,2013-01-16 14:00:00,
2013-01-16 08:05:00,25.4,22.1,29.83,WSW,248,8.0,-999.0,87,0.00,,,0.00,Wunderground v.1.15,2013-01-16 14:05:00,
2013-01-16 08:10:00,25.6,22.5,29.83,WSW,248,7.0,-999.0,88,0.00,,,0.00,Wunderground v.1.15,2013-01-16 14:10:00,
2013-01-16 08:15:00,25.5,22.2,29.83,WSW,248,7.0,-999.0,87,0.00,,,0.00,Wunderground v.1.15,2013-01-16 14:15:00,
2013-01-16 08:20:00,25.4,22.1,29.84,WSW,248,7.0,-999.0,87,0.00,,,0.00,Wunderground v.1.15,2013-01-16 14:20:00,
2013-01-16 08:25:00,25.4,22.3,29.84,WSW,248,6.0,-999.0,88,0.00,,,0.00,Wunderground v.1.15,2013-01-16 14:25:00,
2013-01-16 08:30:00,25.6,22.5,29.84,WSW,248,6.0,-999.0,88,0.00,,,0.00,Wunderground v.1.15,2013-01-16 14:30:00,
2013-01-16 08:35:00,25.8,22.7,29.84,WSW,248,7.0,-999.0,88,0.00,,,0.00,Wunderground v.1.15,2013-01-16 14:35:00,
2013-01-16 08:40:00,26.4,23.3,29.84,WSW,248,7.0,-999.0,88,0.00,,,0.00,Wunderground v.1.15,2013-01-16 14:40:00,
2013-01-16 08:45:00,27.1,24.0,29.85,WSW,248,8.0,-999.0,88,0.00,,,0.00,Wunderground v.1.15,2013-01-16 14:45:00,
2013-01-16 08:50:00,27.5,24.4,29.85,West,270,10.0,-999.0,88,0.00,,,0.00,Wunderground v.1.15,2013-01-16 14:50:00,
2013-01-16 08:55:00,27.8,24.7,29.85,West,270,9.0,-999.0,88,0.00,,,0.00,Wunderground v.1.15,2013-01-16 14:55:00,
2013-01-16 09:00:00,28.0,24.9,29.86,West,270,8.0,-999.0,88,0.00,,,0.00,Wunderground v.1.15,2013-01-16 15:00:00,
2013-01-16 09:05:00,28.6,25.5,29.86,West,270,9.0,-999.0,88,0.00,,,0.00,Wunderground v.1.15,2013-01-16 15:05:00,
2013-01-16 09:10:00,29.2,25.8,29.86,West,270,8.0,-999.0,87,0.00,,,0.00,Wunderground v.1.15,2013-01-16 15:10:00,
2013-01-16 09:15:00,29.7,26.3,29.86,West,270,9.0,-999.0,87,0.00,,,0.00,Wunderground v.1.15,2013-01-16 15:15:00,
2013-01-16 09:20:00,30.3,26.9,29.87,West,270,8.0,-999.0,87,0.00,,,0.00,Wunderground v.1.15,2013-01-16 15:20:00,
2013-01-16 09:25:00,30.8,27.1,29.87,West,270,9.0,-999.0,86,0.00,,,0.00,Wunderground v.1.15,2013-01-16 15:25:00,
2013-01-16 09:30:00,31.3,27.3,29.87,West,270,10.0,-999.0,85,0.00,,,0.00,Wunderground v.1.15,2013-01-16 15:30:00,
2013-01-16 09:35:00,31.8,27.8,29.87,West,270,8.0,-999.0,85,0.00,,,0.00,Wunderground v.1.15,2013-01-16 15:35:00,
2013-01-16 09:40:00,32.3,28.3,29.87,West,270,8.0,-999.0,85,0.00,,,0.00,Wunderground v.1.15,2013-01-16 15:40:00,
2013-01-16 09:45:00,32.5,28.2,29.86,West,270,9.0,-999.0,84,0.00,,,0.00,Wunderground v.1.15,2013-01-16 15:45:00,
2013-01-16 09:50:00,33.1,28.8,29.87,West,270,8.0,-999.0,84,0.00,,,0.00,Wunderground v.1.15,2013-01-16 15:50:00,
2013-01-16 09:55:00,33.5,28.9,29.87,West,270,8.0,-999.0,83,0.00,,,0.00,Wunderground v.1.15,2013-01-16 15:55:00,
2013-01-16 10:00:00,33.7,29.1,29.86,West,270,9.0,-999.0,83,0.00,,,0.00,Wunderground v.1.15,2013-01-16 16:00:00,
2013-01-16 10:05:00,33.9,29.0,29.87,West,270,9.0,-999.0,82,0.00,,,0.00,Wunderground v.1.15,2013-01-16 16:05:00,
2013-01-16 10:10:00,33.8,29.2,29.86,West,270,8.0,-999.0,83,0.00,,,0.00,Wunderground v.1.15,2013-01-16 16:10:00,
2013-01-16 10:15:00,34.1,29.2,29.86,West,270,10.0,-999.0,82,0.00,,,0.00,Wunderground v.1.15,2013-01-16 16:15:00,
2013-01-16 10:20:00,34.6,29.7,29.86,West,270,9.0,-999.0,82,0.00,,,0.00,Wunderground v.1.15,2013-01-16 16:20:00,
2013-01-16 10:25:00,35.0,30.1,29.86,West,270,11.0,-999.0,82,0.00,,,0.00,Wunderground v.1.15,2013-01-16 16:25:00,
2013-01-16 10:30:00,35.2,30.0,29.87,West,270,12.0,-999.0,81,0.00,,,0.00,Wunderground v.1.15,2013-01-16 16:30:00,
2013-01-16 10:35:00,34.8,29.6,29.87,West,270,11.0,-999.0,81,0.00,,,0.00,Wunderground v.1.15,2013-01-16 16:35:00,
2013-01-16 10:40:00,34.7,29.8,29.88,West,270,11.0,-999.0,82,0.00,,,0.00,Wunderground v.1.15,2013-01-16 16:40:00,
2013-01-16 10:45:00,35.0,30.1,29.88,West,270,11.0,-999.0,82,0.00,,,0.00,Wunderground v.1.15,2013-01-16 16:45:00,
2013-01-16 10:50:00,35.0,29.8,29.87,West,270,13.0,-999.0,81,0.00,,,0.00,Wunderground v.1.15,2013-01-16 16:50:00,
2013-01-16 10:55:00,35.0,29.8,29.88,West,270,12.0,-999.0,81,0.00,,,0.00,Wunderground v.1.15,2013-01-16 16:55:00,
2013-01-16 11:00:00,35.5,30.5,29.88,West,270,12.0,-999.0,82,0.00,,,0.00,Wunderground v.1.15,2013-01-16 17:00:00,
2013-01-16 11:05:00,35.7,30.4,29.88,West,270,11.0,-999.0,81,0.00,,,0.00,Wunderground v.1.15,2013-01-16 17:05:00,
2013-01-16 11:10:00,35.3,30.1,29.87,West,270,13.0,-999.0,81,0.00,,,0.00,Wunderground v.1.15,2013-01-16 17:10:00,
2013-01-16 11:15:00,35.3,30.4,29.86,West,270,12.0,-999.0,82,0.00,,,0.00,Wunderground v.1.15,2013-01-16 17:15:00,
2013-01-16 11:20:00,35.8,30.5,29.86,West,270,12.0,-999.0,81,0.00,,,0.00,Wunderground v.1.15,2013-01-16 17:20:00,
2013-01-16 11:25:00,36.0,30.7,29.86,West,270,11.0,-999.0,81,0.00,,,0.00,Wunderground v.1.15,2013-01-16 17:25:00,
2013-01-16 11:30:00,36.2,30.9,29.86,West,270,11.0,-999.0,81,0.00,,,0.00,Wunderground v.1.15,2013-01-16 17:30:00,
2013-01-16 11:35:00,36.6,31.0,29.87,West,270,11.0,-999.0,80,0.00,,,0.00,Wunderground v.1.15,2013-01-16 17:35:00,
2013-01-16 11:40:00,36.6,30.7,29.87,West,270,12.0,-999.0,79,0.00,,,0.00,Wunderground v.1.15,2013-01-16 17:40:00,
2013-01-16 11:45:00,36.9,31.0,29.87,West,270,12.0,-999.0,79,0.00,,,0.00,Wunderground v.1.15,2013-01-16 17:45:00,
2013-01-16 11:50:00,36.9,31.0,29.87,West,270,11.0,-999.0,79,0.00,,,0.00,Wunderground v.1.15,2013-01-16 17:50:00,
2013-01-16 11:55:00,36.8,30.9,29.86,West,270,12.0,-999.0,79,0.00,,,0.00,Wunderground v.1.15,2013-01-16 17:55:00,
2013-01-16 12:00:00,36.7,30.8,29.86,West,270,12.0,-999.0,79,0.00,,,0.00,Wunderground v.1.15,2013-01-16 18:00:00,
2013-01-16 12:05:00,36.7,30.8,29.86,West,270,11.0,-999.0,79,0.00,,,0.00,Wunderground v.1.15,2013-01-16 18:05:00,
2013-01-16 12:10:00,36.9,31.0,29.85,West,270,10.0,-999.0,79,0.00,,,0.00,Wunderground v.1.15,2013-01-16 18:10:00,
2013-01-16 12:15:00,36.8,30.9,29.85,West,270,10.0,-999.0,79,0.00,,,0.00,Wunderground v.1.15,2013-01-16 18:15:00,
2013-01-16 12:20:00,37.1,31.5,29.85,West,270,9.0,-999.0,80,0.00,,,0.00,Wunderground v.1.15,2013-01-16 18:20:00,
2013-01-16 12:25:00,37.9,32.0,29.85,West,270,10.0,-999.0,79,0.00,,,0.00,Wunderground v.1.15,2013-01-16 18:25:00,
2013-01-16 12:30:00,38.2,31.9,29.85,West,270,11.0,-999.0,78,0.00,,,0.00,Wunderground v.1.15,2013-01-16 18:30:00,
2013-01-16 12:35:00,38.8,32.5,29.85,WNW,293,10.0,-999.0,78,0.00,,,0.00,Wunderground v.1.15,2013-01-16 18:35:00,
2013-01-16 12:40:00,39.0,32.1,29.85,WNW,293,12.0,-999.0,76,0.00,,,0.00,Wunderground v.1.15,2013-01-16 18:40:00,
2013-01-16 12:45:00,38.8,31.9,29.85,West,270,13.0,-999.0,76,0.00,,,0.00,Wunderground v.1.15,2013-01-16 18:45:00,
2013-01-16 12:50:00,38.8,32.2,29.85,West,270,13.0,-999.0,77,0.00,,,0.00,Wunderground v.1.15,2013-01-16 18:50:00,
2013-01-16 12:55:00,38.9,32.0,29.85,West,270,13.0,-999.0,76,0.00,,,0.00,Wunderground v.1.15,2013-01-16 18:55:00,
2013-01-16 13:00:00,39.2,32.3,29.85,West,270,12.0,-999.0,76,0.00,,,0.00,Wunderground v.1.15,2013-01-16 19:00:00,
2013-01-16 13:05:00,39.3,32.4,29.85,West,270,13.0,-999.0,76,0.00,,,0.00,Wunderground v.1.15,2013-01-16 19:05:00,
2013-01-16 13:10:00,39.3,32.4,29.85,West,270,12.0,-999.0,76,0.00,,,0.00,Wunderground v.1.15,2013-01-16 19:10:00,
2013-01-16 13:15:00,39.6,32.3,29.85,West,270,11.0,-999.0,75,0.00,,,0.00,Wunderground v.1.15,2013-01-16 19:15:00,
2013-01-16 13:20:00,39.6,32.3,29.85,WNW,293,14.0,-999.0,75,0.00,,,0.00,Wunderground v.1.15,2013-01-16 19:20:00,
2013-01-16 13:25:00,39.8,32.5,29.85,WNW,293,12.0,-999.0,75,0.00,,,0.00,Wunderground v.1.15,2013-01-16 19:25:00,
2013-01-16 13:30:00,39.3,32.0,29.85,WNW,293,11.0,-999.0,75,0.00,,,0.00,Wunderground v.1.15,2013-01-16 19:30:00,
2013-01-16 13:35:00,38.9,31.6,29.86,West,270,11.0,-999.0,75,0.00,,,0.00,Wunderground v.1.15,2013-01-16 19:35:00,
2013-01-16 13:40:00,38.8,31.9,29.86,West,270,11.0,-999.0,76,0.00,,,0.00,Wunderground v.1.15,2013-01-16 19:40:00,
2013-01-16 13:45:00,38.9,32.0,29.86,West,270,11.0,-999.0,76,0.00,,,0.00,Wunderground v.1.15,2013-01-16 19:45:00,
2013-01-16 13:50:00,39.0,32.1,29.86,West,270,11.0,-999.0,76,0.00,,,0.00,Wunderground v.1.15,2013-01-16 19:50:00,
2013-01-16 13:55:00,39.1,32.2,29.86,West,270,11.0,-999.0,76,0.00,,,0.00,Wunderground v.1.15,2013-01-16 19:55:00,
2013-01-16 14:00:00,39.2,32.3,29.86,West,270,12.0,-999.0,76,0.00,,,0.00,Wunderground v.1.15,2013-01-16 20:00:00,
2013-01-16 14:05:00,39.6,32.3,29.86,West,270,14.0,-999.0,75,0.00,,,0.00,Wunderground v.1.15,2013-01-16 20:05:00,
2013-01-16 14:10:00,40.1,32.5,29.86,West,270,14.0,-999.0,74,0.00,,,0.00,Wunderground v.1.15,2013-01-16 20:10:00,
2013-01-16 14:15:00,40.3,32.3,29.87,West,270,14.0,-999.0,73,0.00,,,0.00,Wunderground v.1.15,2013-01-16 20:15:00,
2013-01-16 14:20:00,40.3,32.3,29.87,WNW,293,14.0,-999.0,73,0.00,,,0.00,Wunderground v.1.15,2013-01-16 20:20:00,
2013-01-16 14:25:00,40.4,32.1,29.87,West,270,15.0,-999.0,72,0.00,,,0.00,Wunderground v.1.15,2013-01-16 20:25:00,
2013-01-16 14:30:00,40.6,32.3,29.88,West,270,13.0,-999.0,72,0.00,,,0.00,Wunderground v.1.15,2013-01-16 20:30:00,
2013-01-16 14:35:00,40.4,32.1,29.88,West,270,14.0,-999.0,72,0.00,,,0.00,Wunderground v.1.15,2013-01-16 20:35:00,
2013-01-16 14:40:00,40.3,32.0,29.88,WNW,293,14.0,-999.0,72,0.00,,,0.00,Wunderground v.1.15,2013-01-16 20:40:00,
2013-01-16 14:45:00,40.2,32.2,29.89,WNW,293,14.0,-999.0,73,0.00,,,0.00,Wunderground v.1.15,2013-01-16 20:45:00,
2013-01-16 14:50:00,40.1,32.1,29.89,WNW,293,14.0,-999.0,73,0.00,,,0.00,Wunderground v.1.15,2013-01-16 20:50:00,
2013-01-16 14:55:00,39.8,31.8,29.89,WNW,293,15.0,-999.0,73,0.00,,,0.00,Wunderground v.1.15,2013-01-16 20:55:00,
2013-01-16 15:00:00,39.7,32.1,29.89,WNW,293,13.0,-999.0,74,0.00,,,0.00,Wunderground v.1.15,2013-01-16 21:00:00,
2013-01-16 15:05:00,39.6,32.0,29.89,WNW,293,14.0,-999.0,74,0.00,,,0.00,Wunderground v.1.15,2013-01-16 21:05:00,
2013-01-16 15:10:00,39.5,32.2,29.90,WNW,293,13.0,-999.0,75,0.00,,,0.00,Wunderground v.1.15,2013-01-16 21:10:00,
2013-01-16 15:15:00,39.3,32.0,29.90,WNW,293,14.0,-999.0,75,0.00,,,0.00,Wunderground v.1.15,2013-01-16 21:15:00,
2013-01-16 15:20:00,39.3,32.0,29.90,WNW,293,11.0,-999.0,75,0.00,,,0.00,Wunderground v.1.15,2013-01-16 21:20:00,
2013-01-16 15:25:00,39.0,31.7,29.91,WNW,293,14.0,-999.0,75,0.00,,,0.00,Wunderground v.1.15,2013-01-16 21:25:00,
2013-01-16 15:30:00,38.6,31.4,29.92,NW,315,13.0,-999.0,75,0.00,,,0.00,Wunderground v.1.15,2013-01-16 21:30:00,
2013-01-16 15:35:00,38.2,31.3,29.92,NW,315,13.0,-999.0,76,0.00,,,0.00,Wunderground v.1.15,2013-01-16 21:35:00,
2013-01-16 15:40:00,38.0,31.1,29.93,NW,315,14.0,-999.0,76,0.00,,,0.00,Wunderground v.1.15,2013-01-16 21:40:00,
2013-01-16 15:45:00,37.4,30.8,29.94,NW,315,12.0,-999.0,77,0.00,,,0.00,Wunderground v.1.15,2013-01-16 21:45:00,
2013-01-16 15:50:00,36.0,30.1,29.94,NNW,338,7.0,-999.0,79,0.00,,,0.00,Wunderground v.1.15,2013-01-16 21:50:00,
2013-01-16 15:55:00,34.8,29.6,29.95,NNW,338,6.0,-999.0,81,0.00,,,0.00,Wunderground v.1.15,2013-01-16 21:55:00,
2013-01-16 16:00:00,33.8,28.9,29.96,North,0,6.0,-999.0,82,0.00,,,0.00,Wunderground v.1.15,2013-01-16 22:00:00,
2013-01-16 16:05:00,32.7,28.1,29.96,NNW,338,5.0,-999.0,83,0.00,,,0.00,Wunderground v.1.15,2013-01-16 22:05:00,
2013-01-16 16:10:00,31.8,27.5,29.97,North,0,5.0,-999.0,84,0.00,,,0.00,Wunderground v.1.15,2013-01-16 22:10:00,
2013-01-16 16:15:00,31.2,26.9,29.98,North,0,3.0,-999.0,84,0.00,,,0.00,Wunderground v.1.15,2013-01-16 22:15:00,
2013-01-16 16:20:00,30.8,26.8,29.98,North,0,3.0,-999.0,85,0.00,,,0.00,Wunderground v.1.15,2013-01-16 22:20:00,
2013-01-16 16:25:00,30.3,26.3,29.99,NNW,338,5.0,-999.0,85,0.00,,,0.00,Wunderground v.1.15,2013-01-16 22:25:00,
2013-01-16 16:30:00,29.9,26.2,30.00,North,0,5.0,-999.0,86,0.00,,,0.00,Wunderground v.1.15,2013-01-16 22:30:00,
2013-01-16 16:35:00,29.6,25.9,30.00,NNW,338,4.0,-999.0,86,0.00,,,0.00,Wunderground v.1.15,2013-01-16 22:35:00,
2013-01-16 16:40:00,29.4,25.7,30.01,NNW,338,5.0,-999.0,86,0.00,,,0.00,Wunderground v.1.15,2013-01-16 22:40:00,
2013-01-16 16:45:00,29.2,25.5,30.02,NNW,338,6.0,-999.0,86,0.00,,,0.00,Wunderground v.1.15,2013-01-16 22:45:00,
2013-01-16 16:50:00,28.9,25.5,30.02,NNW,338,5.0,-999.0,87,0.00,,,0.00,Wunderground v.1.15,2013-01-16 22:50:00,
2013-01-16 16:55:00,28.4,24.7,30.03,NNW,338,5.0,-999.0,86,0.00,,,0.00,Wunderground v.1.15,2013-01-16 22:55:00,
2013-01-16 17:00:00,28.1,24.7,30.03,NNW,338,5.0,-999.0,87,0.00,,,0.00,Wunderground v.1.15,2013-01-16 23:00:00,
2013-01-16 17:05:00,28.1,24.7,30.04,NNW,338,4.0,-999.0,87,0.00,,,0.00,Wunderground v.1.15,2013-01-16 23:05:00,
2013-01-16 17:10:00,27.7,24.3,30.04,NNW,338,6.0,-999.0,87,0.00,,,0.00,Wunderground v.1.15,2013-01-16 23:10:00,
2013-01-16 17:15:00,27.4,24.0,30.04,NNW,338,4.0,-999.0,87,0.00,,,0.00,Wunderground v.1.15,2013-01-16 23:15:00,
2013-01-16 17:20:00,27.0,23.4,30.05,NNW,338,6.0,-999.0,86,0.00,,,0.00,Wunderground v.1.15,2013-01-16 23:20:00,
2013-01-16 17:25:00,26.6,23.0,30.04,NNW,338,4.0,-999.0,86,0.00,,,0.00,Wunderground v.1.15,2013-01-16 23:25:00,
2013-01-16 17:30:00,26.3,22.7,30.05,NNW,338,4.0,-999.0,86,0.00,,,0.00,Wunderground v.1.15,2013-01-16 23:30:00,
2013-01-16 17:35:00,26.1,22.2,30.05,North,0,4.0,-999.0,85,0.00,,,0.00,Wunderground v.1.15,2013-01-16 23:35:00,
2013-01-16 17:40:00,25.8,21.9,30.06,NNW,338,3.0,-999.0,85,0.00,,,0.00,Wunderground v.1.15,2013-01-16 23:40:00,
2013-01-16 17:45:00,25.7,21.8,30.06,North,0,3.0,-999.0,85,0.00,,,0.00,Wunderground v.1.15,2013-01-16 23:45:00,
2013-01-16 17:50:00,25.7,21.5,30.07,North,0,3.0,-999.0,84,0.00,,,0.00,Wunderground v.1.15,2013-01-16 23:50:00,
2013-01-16 17:55:00,25.6,21.4,30.07,NNW,338,5.0,-999.0,84,0.00,,,0.00,Wunderground v.1.15,2013-01-16 23:55:00,
2013-01-16 18:00:00,25.5,21.1,30.07,NNW,338,3.0,-999.0,83,0.00,,,0.00,Wunderground v.1.15,2013-01-17 00:00:00,
2013-01-16 18:05:00,25.4,21.0,30.08,NNW,338,5.0,-999.0,83,0.00,,,0.00,Wunderground v.1.15,2013-01-17 00:05:00,
2013-01-16 18:10:00,25.4,21.0,30.08,NNW,338,4.0,-999.0,83,0.00,,,0.00,Wunderground v.1.15,2013-01-17 00:10:00,
2013-01-16 18:15:00,25.0,20.3,30.09,NNW,338,4.0,-999.0,82,0.00,,,0.00,Wunderground v.1.15,2013-01-17 00:15:00,
2013-01-16 18:20:00,24.6,19.9,30.09,NNW,338,3.0,-999.0,82,0.00,,,0.00,Wunderground v.1.15,2013-01-17 00:20:00,
2013-01-16 18:25:00,24.3,19.6,30.10,NNW,338,4.0,-999.0,82,0.00,,,0.00,Wunderground v.1.15,2013-01-17 00:25:00,
2013-01-16 18:30:00,23.9,18.9,30.11,NNW,338,3.0,-999.0,81,0.00,,,0.00,Wunderground v.1.15,2013-01-17 00:30:00,
2013-01-16 18:35:00,23.6,18.6,30.11,NW,315,3.0,-999.0,81,0.00,,,0.00,Wunderground v.1.15,2013-01-17 00:35:00,
2013-01-16 18:40:00,23.2,18.2,30.12,NW,315,5.0,-999.0,81,0.00,,,0.00,Wunderground v.1.15,2013-01-17 00:40:00,
2013-01-16 18:45:00,22.9,17.9,30.12,NNW,338,2.0,-999.0,81,0.00,,,0.00,Wunderground v.1.15,2013-01-17 00:45:00,
2013-01-16 18:50:00,22.6,17.6,30.12,NNW,338,1.0,-999.0,81,0.00,,,0.00,Wunderground v.1.15,2013-01-17 00:50:00,
2013-01-16 18:55:00,22.4,17.7,30.13,NNW,338,3.0,-999.0,82,0.00,,,0.00,Wunderground v.1.15,2013-01-17 00:55:00,
2013-01-16 19:00:00,22.1,17.2,30.13,NNW,338,3.0,-999.0,81,0.00,,,0.00,Wunderground v.1.15,2013-01-17 01:00:00,
2013-01-16 19:05:00,21.9,17.0,30.14,NNW,338,2.0,-999.0,81,0.00,,,0.00,Wunderground v.1.15,2013-01-17 01:05:00,
2013-01-16 19:10:00,21.7,16.8,30.15,NNW,338,4.0,-999.0,81,0.00,,,0.00,Wunderground v.1.15,2013-01-17 01:10:00,
2013-01-16 19:15:00,21.3,16.4,30.15,NW,315,4.0,-999.0,81,0.00,,,0.00,Wunderground v.1.15,2013-01-17 01:15:00,
2013-01-16 19:20:00,21.2,16.0,30.15,NNW,338,3.0,-999.0,80,0.00,,,0.00,Wunderground v.1.15,2013-01-17 01:20:00,
2013-01-16 19:25:00,20.9,15.7,30.15,NNW,338,1.0,-999.0,80,0.00,,,0.00,Wunderground v.1.15,2013-01-17 01:25:00,
2013-01-16 19:30:00,20.8,15.6,30.15,NNW,338,4.0,-999.0,80,0.00,,,0.00,Wunderground v.1.15,2013-01-17 01:30:00,
2013-01-16 19:35:00,20.4,14.9,30.15,NNW,338,4.0,-999.0,79,0.00,,,0.00,Wunderground v.1.15,2013-01-17 01:35:00,
2013-01-16 19:40:00,20.0,14.5,30.14,NNW,338,4.0,-999.0,79,0.00,,,0.00,Wunderground v.1.15,2013-01-17 01:40:00,
2013-01-16 19:52:00,19.6,13.9,30.15,NNW,338,5.0,-999.0,78,0.00,,,0.00,Wunderground v.1.15,2013-01-17 01:52:00,
2013-01-16 19:57:00,18.2,11.6,30.16,North,350,3.0,9.0,75,0.00,,,0.00,Wunderground v.1.15,2013-01-17 01:57:00,
2013-01-16 20:02:00,17.9,11.0,30.17,North,350,0.0,4.0,74,0.00,,,0.00,Wunderground v.1.15,2013-01-17 02:02:00,
2013-01-16 20:07:00,17.6,11.0,30.17,North,350,6.0,6.0,75,0.00,,,0.00,Wunderground v.1.15,2013-01-17 02:07:00,
2013-01-16 20:12:00,17.5,10.9,30.17,North,351,4.0,6.0,75,0.00,,,0.00,Wunderground v.1.15,2013-01-17 02:12:00,
2013-01-16 20:17:00,17.3,10.7,30.17,North,350,0.0,6.0,75,0.00,,,0.00,Wunderground v.1.15,2013-01-17 02:17:00,
2013-01-16 20:22:00,17.2,10.6,30.17,North,350,3.0,4.0,75,0.00,,,0.00,Wunderground v.1.15,2013-01-17 02:22:00,
2013-01-16 20:27:00,17.1,10.5,30.18,North,349,4.0,6.0,75,0.00,,,0.00,Wunderground v.1.15,2013-01-17 02:27:00,
2013-01-16 20:32:00,16.6,10.3,30.19,NNW,329,0.0,7.0,76,0.00,,,0.00,Wunderground v.1.15,2013-01-17 02:32:00,
2013-01-16 20:37:00,16.2,10.0,30.19,NNW,327,2.0,9.0,76,0.00,,,0.00,Wunderground v.1.15,2013-01-17 02:37:00,
2013-01-16 20:42:00,15.9,9.7,30.20,NW,326,0.0,3.0,76,0.00,,,0.00,Wunderground v.1.15,2013-01-17 02:42:00,
2013-01-16 20:47:00,15.6,8.2,30.20,NNW,327,0.0,5.0,72,0.00,,,0.00,Wunderground v.1.15,2013-01-17 02:47:00,
2013-01-16 20:53:00,15.3,6.9,30.20,NW,326,0.0,4.0,69,0.00,,,0.00,Wunderground v.1.15,2013-01-17 02:53:00,
2013-01-16 20:58:00,15.0,6.3,30.20,NNW,327,4.0,4.0,68,0.00,,,0.00,Wunderground v.1.15,2013-01-17 02:58:00,
2013-01-16 21:03:00,14.8,5.8,30.20,NNW,327,0.0,4.0,67,0.00,,,0.00,Wunderground v.1.15,2013-01-17 03:03:00,
2013-01-16 21:08:00,14.6,5.6,30.20,NNW,327,2.0,7.0,67,0.00,,,0.00,Wunderground v.1.15,2013-01-17 03:08:00,
2013-01-16 21:13:00,14.5,5.9,30.21,NNW,327,1.0,4.0,68,0.00,,,0.00,Wunderground v.1.15,2013-01-17 03:13:00,
2013-01-16 21:18:00,14.4,6.1,30.21,NNW,328,0.0,7.0,69,0.00,,,0.00,Wunderground v.1.15,2013-01-17 03:18:00,
2013-01-16 21:23:00,14.3,6.0,30.22,NNW,329,3.0,4.0,69,0.00,,,0.00,Wunderground v.1.15,2013-01-17 03:23:00,
2013-01-16 21:28:00,14.0,6.0,30.23,NNW,329,1.0,5.0,70,0.00,,,0.00,Wunderground v.1.15,2013-01-17 03:28:00,
2013-01-16 21:33:00,13.6,5.9,30.24,NW,322,6.0,9.0,71,0.00,,,0.00,Wunderground v.1.15,2013-01-17 03:33:00,
2013-01-16 21:38:00,13.4,5.7,30.24,NW,322,2.0,9.0,71,0.00,,,0.00,Wunderground v.1.15,2013-01-17 03:38:00,
2013-01-16 21:43:00,13.2,5.6,30.24,NW,322,4.0,6.0,71,0.00,,,0.00,Wunderground v.1.15,2013-01-17 03:43:00,
2013-01-16 21:48:00,13.0,5.7,30.23,NW,323,4.0,6.0,72,0.00,,,0.00,Wunderground v.1.15,2013-01-17 03:48:00,
2013-01-16 21:53:00,12.7,5.4,30.24,NW,323,6.0,6.0,72,0.00,,,0.00,Wunderground v.1.15,2013-01-17 03:53:00,
2013-01-16 21:58:00,12.4,4.5,30.24,NW,323,3.0,6.0,70,0.00,,,0.00,Wunderground v.1.15,2013-01-17 03:58:00,
2013-01-16 22:03:00,12.3,4.1,30.24,NW,323,4.0,6.0,69,0.00,,,0.00,Wunderground v.1.15,2013-01-17 04:03:00,
2013-01-16 22:08:00,12.0,4.1,30.24,NW,323,2.0,6.0,70,0.00,,,0.00,Wunderground v.1.15,2013-01-17 04:08:00,
2013-01-16 22:13:00,11.6,4.0,30.24,NW,323,3.0,6.0,71,0.00,,,0.00,Wunderground v.1.15,2013-01-17 04:13:00,
2013-01-16 22:18:00,11.1,3.8,30.24,NW,323,4.0,7.0,72,0.00,,,0.00,Wunderground v.1.15,2013-01-17 04:18:00,
2013-01-16 22:23:00,10.9,3.6,30.24,NW,322,2.0,4.0,72,0.00,,,0.00,Wunderground v.1.15,2013-01-17 04:23:00,
2013-01-16 22:28:00,10.7,2.8,30.24,NW,321,0.0,7.0,70,0.00,,,0.00,Wunderground v.1.15,2013-01-17 04:28:00,
2013-01-16 22:33:00,10.7,2.8,30.24,NW,321,0.0,4.0,70,0.00,,,0.00,Wunderground v.1.15,2013-01-17 04:33:00,
2013-01-16 22:38:00,10.5,2.3,30.24,NW,321,1.0,5.0,69,0.00,,,0.00,Wunderground v.1.15,2013-01-17 04:38:00,
2013-01-16 22:43:00,10.3,4.2,30.25,NW,321,4.0,5.0,76,0.00,,,0.00,Wunderground v.1.15,2013-01-17 04:43:00,
2013-01-16 22:48:00,10.0,2.2,30.25,NW,321,3.0,5.0,70,0.00,,,0.00,Wunderground v.1.15,2013-01-17 04:48:00,
2013-01-16 22:53:00,9.9,2.4,30.25,NW,321,0.0,3.0,71,0.00,,,0.00,Wunderground v.1.15,2013-01-17 04:53:00,
2013-01-16 22:59:00,9.9,2.7,30.25,NW,321,1.0,3.0,72,0.00,,,0.00,Wunderground v.1.15,2013-01-17 04:59:00,
2013-01-16 23:00:00,9.9,3.0,30.25,NW,321,1.0,3.0,73,0.00,,,0.00,Wunderground v.1.15,2013-01-17 05:00:00,
2013-01-16 23:02:00,9.9,3.0,30.25,NW,321,0.0,1.0,73,0.00,,,0.00,Wunderground v.1.15,2013-01-17 05:02:00,
2013-01-16 23:05:00,9.8,2.9,30.25,NW,321,0.0,5.0,73,0.00,,,0.00,Wunderground v.1.15,2013-01-17 05:05:00,
2013-01-16 23:10:00,9.9,2.7,30.25,NW,321,0.0,5.0,72,0.00,,,0.00,Wunderground v.1.15,2013-01-17 05:10:00,
2013-01-16 23:15:00,9.9,2.7,30.25,NW,321,4.0,4.0,72,0.00,,,0.00,Wunderground v.1.15,2013-01-17 05:15:00,
2013-01-16 23:20:00,9.8,2.6,30.26,NW,321,1.0,6.0,72,0.00,,,0.00,Wunderground v.1.15,2013-01-17 05:20:00,
2013-01-16 23:25:00,9.8,2.3,30.26,NW,321,2.0,6.0,71,0.00,,,0.00,Wunderground v.1.15,2013-01-17 05:25:00,
2013-01-16 23:30:00,9.7,1.9,30.26,NW,321,3.0,6.0,70,0.00,,,0.00,Wunderground v.1.15,2013-01-17 05:30:00,
2013-01-16 23:35:00,9.6,1.2,30.26,NW,321,0.0,5.0,68,0.00,,,0.00,Wunderground v.1.15,2013-01-17 05:35:00,
2013-01-16 23:40:00,9.6,0.8,30.26,NW,321,7.0,7.0,67,0.00,,,0.00,Wunderground v.1.15,2013-01-17 05:40:00,
2013-01-16 23:45:00,9.6,0.5,30.27,NW,321,4.0,4.0,66,0.00,,,0.00,Wunderground v.1.15,2013-01-17 05:45:00,
2013-01-16 23:50:00,9.4,0.3,30.27,NW,321,2.0,4.0,66,0.00,,,0.00,Wunderground v.1.15,2013-01-17 05:50:00,
2013-01-16 23:55:00,9.3,-0.1,30.27,NW,321,0.0,6.0,65,0.00,,,0.00,Wunderground v.1.15,2013-01-17 05:55:00,